Regional Weather Roundup
Issued by NWS

Home | Current Version | Previous Version | Graphics & Text | Print | Product List | Glossary On
Versions: 1 2 3 4 5 6 7 8 9 10 11 12 13 14 15 16 17 18 19 20 21 22 23 24 25 26 27 28 29 30 31 32 33 34 35 36 37 38 39 40 41 42 43 44 45 46 47 48 49 50
000
ASUS45 KTFX 020410
RWRMT
MONTANA REGIONAL WEATHER ROUNDUP
NATIONAL WEATHER SERVICE GREAT FALLS MT
1000 PM MDT MON JUN 01 2015

NOTE: "FAIR" INDICATES FEW OR NO CLOUDS BELOW 12000 FEET WITH NO
SIGNIFICANT WEATHER AND/OR OBSTRUCTIONS TO VISIBILITY.

MTZ001>007-043-020500-
WEST OF THE DIVIDE

CITY           SKY/WX    TMP DP  RH WIND       PRES   REMARKS
KALISPELL      LGT RAIN  58  56  93 CALM      29.88R
MISSOULA       CLOUDY    58  54  86 N12       29.87R
BUTTE          MOCLDY    54  44  69 CALM      29.97R
MULLAN PASS    RAIN      45  44  97 N9        29.96R FOG
DEER LODGE       N/A     54  48  82 W3        29.95R
EUREKA           N/A     63  52  67 SE13G20   29.87R
HAMILTON         N/A     57  52  82 SW2       29.86S
LIBBY            N/A     57  55  94 CALM      29.90R
PLAINS           N/A     61  56  83 CALM      29.90R
RONAN            N/A     59  55  86 N2        29.93R
$$

MTZ008-052>055-020500-
SOUTHWEST MONTANA

CITY           SKY/WX    TMP DP  RH WIND       PRES   REMARKS
BOZEMAN        CLOUDY    54  49  83 NW9       29.92R
DILLON         MOCLDY    52  47  83 CALM      29.94R
W YELLOWSTONE  CLOUDY    45  45 100 CALM      30.07R
THREE FORKS      N/A     59  14  17 CALM      29.92S
TWIN BRIDGES     N/A     53  45  74 S3        29.94R
$$

MTZ009-010-012-014-046-048-049-054-020500-
EAST SLOPES AND CENTRAL MONTANA

CITY           SKY/WX    TMP DP  RH WIND       PRES   REMARKS
CUT BANK       CLOUDY    58  52  80 NW8G20    29.87F
GREAT FALLS    CLOUDY    53  51  93 W6        29.87F
MALMSTROM AFB  CLOUDY    54  53  94 S8        29.87S
HELENA         MOCLDY    60  52  74 CALM      29.90S
CONRAD           N/A     59  58  96 SW2       29.91R
$$

MTZ011-013-016-021-045-047-050-051-020500-
NORTH CENTRAL MONTANA

CITY           SKY/WX    TMP DP  RH WIND       PRES   REMARKS
HAVRE          CLOUDY    67  43  41 E10       29.85R
LEWISTOWN      LGT RAIN  57  53  86 E9        29.92F
N BAR RANCH    HVY RAIN  54  52  94 N12       30.00F
CHINOOK          N/A     68  37  32 E7        29.87R
FORT BENTON      N/A     59  54  82 SE5       29.85R
$$

MTZ017>020-022>027-061-062-020500-
NORTHEAST MONTANA

CITY           SKY/WX    TMP DP  RH WIND       PRES   REMARKS
GLASGOW        MOCLDY    70  42  36 NE21G28   29.81R
JORDAN           N/A     72  51  47 NE17      29.78F
SIDNEY         MOCLDY    73  52  46 NW9       29.77R
WOLF POINT     MOCLDY    71  50  47 N17       29.80R
MALTA            N/A     70  41  34 NE14      29.83R
PLENTYWOOD       N/A     66  46  48 N16       29.86R
POPLAR           N/A     72  50  46 N14       29.81R
SCOBEY           N/A     63  42  46 N7        29.88R
$$

MTZ028>42-056>058-020500-
SOUTHCENTRAL AND SOUTHEAST MONTANA

CITY           SKY/WX    TMP DP  RH WIND       PRES   REMARKS
BAKER          CLOUDY    70  59  68 CALM      29.78R
BILLINGS       TSTM      59  54  83 SW20G25   29.95R
LIVINGSTON     MOCLDY    58  49  72 W6        29.92F
MILES CITY     CLOUDY    77  50  38 NE13      29.72S
BIG TIMBER       N/A     57  50  77 SW8       29.91F
EKALAKA          N/A     72  60  65 SE7       29.78F
FORSYTH          N/A     64  59  82 W18G26    29.78R
LAUREL           N/A     58  50  75 W12       29.93R
ROUNDUP          N/A     59  51  74 NW20      29.81R
$$

REGIONAL REPORTS...DAKOTAS

CITY           SKY/WX    TMP DP  RH WIND       PRES   REMARKS
WILLISTON      MOCLDY    71  57  61 NE15      29.81R
MINOT          CLOUDY    64  59  83 N7        29.80R
DICKINSON      MOCLDY    68  61  78 S7        29.75F
BEACH          FAIR      66  54  63 CALM      29.79R
CROSBY         MOCLDY    66  59  77 NE8       29.85R
WATFORD CITY   FAIR      64  57  77 E7        29.77R
BISMARCK       MOCLDY    70  61  73 SE7       29.78F
GRAND FORKS    CLOUDY    66  46  48 SE17      29.88S
FARGO          PTCLDY    67  46  47 SE20G31   29.91S
BUFFALO SD       N/A     70  60  70 E10       29.71R
RAPID CITY     CLOUDY    71  51  49 E13       29.85R
$$

REGIONAL REPORTS...WYOMING/IDAHO/WASHINGTON

CITY           SKY/WX    TMP DP  RH WIND       PRES   REMARKS
GILLETTE       MOCLDY    63  49  60 S10       29.85S
SHERIDAN       CLOUDY    59  52  77 NW6       29.82R
BUFFALO WY     MOCLDY    65  43  44 SW12      29.89R
CODY           CLOUDY    55  45  67 SW17G37   29.98R
YELLOWSTONE LA   N/A     42  40  92 CALM      30.14F
IDAHO FALLS    MOCLDY    54  48  80 CALM      29.95F
SALMON           N/A     55  46  71 S3        29.89S
BOISE          PTCLDY    70  47  43 CALM      29.81R
SPOKANE        CLOUDY    66  50  56 SW13G24   29.77F
$$

REGIONAL REPORTS...ALBERTA

CITY           SKY/WX    TMP DP  RH WIND       PRES   REMARKS
EDMONTON       CLEAR     50  37  62 NE6       30.01R
CALGARY        LGT RAIN  59  50  72 NE10      29.94R
LETHBRIDGE     LGT RAIN  64  43  45 E17G24    29.86R
MEDICINE HAT   CLEAR     68  37  32 E15G22    29.88R
$$

REGIONAL REPORTS...SASKATCHEWAN

CITY           SKY/WX    TMP DP  RH WIND       PRES   REMARKS
SWIFT CURRENT  CLEAR     59  39  47 NE12      29.92S
REGINA         MOCLDY    63  46  55 N8        29.91R
SASKATOON      MOCLDY    55  45  67 N5        29.95R
$$


USA.gov is the U.S. government's official web portal to all federal, state and local government web resources and services.